Location: *
(51.8167°N, 12.5000°E)
Time: 04:38:48
(UTC+00:00)

Cosmos 2218 Rocket - Pass Details

Date: 16 September 2019
Orbit: 955 x 1006 km, 82.9° (Epoch: 21 October)

Event Time Altitude Azimuth Distance (km) Brightness Sun altitude
Rises 19:31:32 0° 349° (N) 3,749 7.7 -19.5°
Reaches altitude 10° 19:34:05 10° 350° (N) 2,793 7.0 -19.9°
Maximum altitude 19:40:32 89° 269° (W) 1,008 4.0 -20.7°
Enters shadow 19:44:34 24° 172° (S) 1,914 5.2 -21.2°
